Total_Precipitation_Accumulation
0.01 0.03 0.07 0.11 0.13 0.16 0.18 0.21 0.24 0.25 0.26 0.33 0.47 0.68 0.90 1.01 1.22 1.34 1.33 1.45 1.84 2.23 2.52 2.79 2.94 3.17 3.50 3.83 4.13 4.46 4.96 5.30 5.22 5.28 5.17 5.00 4.67 4.44 4.01 3.54 3.17 3.13 3.15 3.41
0.02 0.05 0.06 0.07 0.07 0.11 0.15 0.17 0.21 0.25 0.28 0.35 0.41 0.64 0.87 0.90 1.11 1.25 1.35 1.51 1.65 1.85 2.31 2.58 2.60 2.84 3.10 3.64 4.17 4.53 4.57 4.59 4.51 4.76 5.13 5.33 5.26 4.71 4.05 3.66 3.52 3.14 3.09 3.27
0.04 0.06 0.05 0.04 0.04 0.07 0.15 0.18 0.22 0.25 0.30 0.41 0.52 0.97 1.10 1.01 1.08 1.14 1.23 1.41 1.53 1.69 1.87 2.18 2.21 2.32 2.55 3.07 3.61 3.78 3.68 3.66 3.59 3.75 4.13 4.43 4.74 4.49 4.17 3.86 3.60 3.18 3.05 3.09
0.04 0.04 0.04 0.04 0.04 0.06 0.12 0.12 0.15 0.21 0.35 0.58 0.62 1.15 1.39 1.38 1.39 1.20 1.23 1.29 1.55 1.69 1.72 1.88 1.94 2.00 2.07 2.22 2.47 2.68 2.91 3.06 3.10 3.15 3.36 3.59 3.90 3.97 3.97 3.91 3.56 3.18 2.88 2.86
0.04 0.03 0.04 0.07 0.06 0.05 0.08 0.09 0.12 0.19 0.33 0.60 0.61 0.86 1.42 1.61 1.62 1.34 1.25 1.24 1.40 1.41 1.48 1.62 1.73 1.76 1.81 1.96 2.21 2.43 2.75 2.93 3.01 2.97 3.05 3.27 3.61 3.68 3.51 3.39 3.46 3.23 2.94 2.67
0.07 0.05 0.06 0.07 0.06 0.05 0.07 0.10 0.17 0.26 0.42 0.87 0.72 0.82 1.31 1.50 1.37 1.33 1.18 1.10 1.18 1.13 1.28 1.49 1.59 1.67 1.75 1.84 2.06 2.30 2.55 2.57 2.68 2.74 2.75 2.80 3.03 3.20 3.07 2.94 2.95 2.80 2.68 2.57
0.16 0.14 0.10 0.08 0.08 0.07 0.10 0.18 0.61 1.04 1.24 1.18 0.74 0.87 1.38 1.24 1.11 1.11 1.12 1.18 1.19 1.12 1.13 1.29 1.47 1.51 1.66 1.78 1.91 2.05 2.19 2.31 2.34 2.39 2.34 2.29 2.38 2.54 2.55 2.46 2.51 2.42 2.21 2.12
0.25 0.27 0.18 0.10 0.09 0.12 0.16 0.27 0.77 1.10 1.10 1.07 0.90 1.31 1.51 1.10 1.04 1.03 0.96 0.94 0.92 0.88 0.85 0.97 1.16 1.29 1.43 1.59 1.67 1.80 1.93 2.09 2.19 2.23 2.25 2.22 2.18 2.24 2.33 2.43 2.28 2.23 1.97 1.83
0.19 0.20 0.14 0.10 0.09 0.13 0.25 0.32 0.38 0.61 0.75 1.11 1.33 1.57 1.41 1.12 1.13 1.04 1.01 0.92 0.92 0.91 0.89 0.90 1.02 1.13 1.17 1.28 1.41 1.53 1.68 1.87 2.07 2.06 2.20 2.17 2.01 2.08 2.25 2.36 2.27 2.15 2.13 2.00
0.10 0.13 0.14 0.10 0.13 0.17 0.20 0.26 0.35 0.53 0.83 1.16 1.34 1.75 1.96 1.65 1.44 1.17 1.18 1.09 1.02 0.93 0.83 0.85 0.89 0.91 0.90 1.05 1.37 1.50 1.66 1.84 1.94 1.91 1.82 1.72 1.77 1.93 2.08 2.08 2.00 2.13 2.20 2.22
0.09 0.11 0.15 0.16 0.16 0.19 0.22 0.26 0.35 0.45 0.58 0.93 1.38 1.60 1.39 1.39 1.34 1.30 1.18 1.11 1.04 0.95 0.85 0.87 0.95 0.95 0.94 1.06 1.32 1.33 1.40 1.62 1.74 1.72 1.58 1.53 1.60 1.69 1.76 1.79 1.78 1.93 2.02 2.10
0.11 0.13 0.20 0.24 0.19 0.17 0.20 0.24 0.35 0.54 0.60 0.75 1.12 1.37 0.95 1.04 1.08 0.97 0.90 0.90 0.82 0.81 0.80 0.82 0.88 1.01 1.14 1.27 1.24 1.13 1.17 1.25 1.38 1.42 1.40 1.43 1.46 1.44 1.42 1.47 1.58 1.69 1.75 1.79
0.14 0.19 0.34 0.54 0.53 0.32 0.26 0.23 0.28 0.37 0.47 0.60 0.93 1.26 1.01 0.98 1.08 1.01 0.94 0.92 0.85 0.81 0.83 0.85 0.90 0.95 0.99 1.15 1.29 1.12 1.08 1.16 1.27 1.34 1.40 1.50 1.53 1.45 1.40 1.45 1.50 1.50 1.45 1.47
0.13 0.16 0.30 0.56 0.49 0.37 0.33 0.29 0.31 0.38 0.49 0.55 0.68 0.98 1.09 1.08 1.06 1.03 1.01 0.92 0.92 0.89 0.75 0.78 0.91 1.06 1.08 1.07 1.15 1.06 1.03 1.11 1.24 1.48 1.71 1.74 1.68 1.61 1.53 1.44 1.43 1.42 1.35 1.43
0.14 0.14 0.16 0.21 0.27 0.35 0.39 0.31 0.29 0.33 0.40 0.56 0.56 0.72 0.97 1.05 0.98 1.04 1.09 0.90 0.80 0.87 0.83 0.74 0.84 1.03 1.14 1.17 1.17 1.11 1.14 1.20 1.35 1.61 1.77 1.86 1.89 1.81 1.73 1.59 1.47 1.43 1.44 1.41
0.21 0.20 0.21 0.23 0.31 0.38 0.41 0.33 0.26 0.26 0.29 0.35 0.46 0.69 0.79 0.75 0.82 0.90 0.91 0.90 0.92 0.98 0.93 0.84 0.84 0.90 1.07 1.16 1.23 1.26 1.34 1.41 1.47 1.51 1.56 1.70 1.81 1.82 1.75 1.56 1.48 1.51 1.51 1.48
0.36 0.36 0.34 0.37 0.37 0.46 0.51 0.39 0.36 0.31 0.28 0.38 0.61 0.83 0.79 0.77 0.85 0.82 0.84 0.82 0.95 0.99 0.88 0.83 0.86 0.91 0.97 1.01 1.11 1.37 1.40 1.38 1.40 1.47 1.56 1.71 1.75 1.72 1.65 1.50 1.48 1.52 1.51 1.55
0.34 0.44 0.46 0.50 0.65 0.78 0.55 0.36 0.37 0.37 0.40 0.49 0.61 0.69 0.70 0.69 0.77 0.79 0.76 0.75 0.73 0.78 0.75 0.76 0.84 0.92 0.94 0.92 0.93 1.06 1.22 1.33 1.40 1.44 1.52 1.61 1.64 1.70 1.74 1.68 1.59 1.64 1.67 1.60
0.33 0.47 0.54 0.63 0.82 0.69 0.48 0.42 0.45 0.52 0.60 0.62 0.68 0.71 0.71 0.72 0.85 0.95 0.79 0.70 0.66 0.66 0.71 0.83 0.94 0.92 0.91 0.91 0.93 1.04 1.18 1.32 1.47 1.53 1.56 1.57 1.66 1.81 1.83 1.72 1.69 1.75 1.73 1.61
0.38 0.48 0.67 0.76 0.96 0.90 0.69 0.53 0.47 0.61 1.03 0.77 0.72 0.76 0.78 0.83 1.06 1.16 0.88 0.77 0.76 0.78 0.82 0.79 0.78 0.78 0.83 0.95 1.03 1.10 1.27 1.49 1.59 1.60 1.68 1.75 1.80 1.92 2.02 2.04 1.98 1.90 1.87 1.79
0.82 0.79 0.77 0.89 1.03 0.88 0.65 0.54 0.62 1.07 1.33 0.96 0.89 0.87 0.88 0.99 0.96 0.93 0.85 0.77 0.78 0.82 0.87 0.87 0.90 0.91 0.95 0.99 1.16 1.37 1.48 1.57 1.64 1.69 1.75 1.94 2.03 2.13 2.29 2.46 2.36 2.28 2.20 2.17
1.10 1.17 1.13 1.15 1.31 1.29 0.79 0.67 0.99 1.25 1.06 1.07 1.09 1.04 1.04 0.93 0.78 0.78 0.81 0.77 0.73 0.75 0.89 1.00 1.12 1.16 1.09 1.07 1.19 1.38 1.51 1.60 1.77 1.81 1.90 1.96 2.09 2.18 2.34 2.70 2.70 2.72 2.70 2.52
1.20 1.34 1.47 1.45 1.45 1.18 1.02 1.07 1.11 1.19 1.15 1.15 1.03 0.91 0.93 0.90 0.84 0.87 0.95 0.93 0.83 0.80 0.91 0.99 1.15 1.24 1.26 1.33 1.46 1.65 1.72 1.80 1.88 2.02 2.15 2.22 2.30 2.47 2.58 2.73 2.78 2.83 2.79 2.64
1.17 1.07 1.43 1.60 1.47 1.33 1.20 1.10 1.14 1.30 1.24 1.11 0.98 0.93 0.94 0.95 0.89 0.86 0.87 0.91 0.89 0.86 0.95 1.07 1.19 1.40 1.53 1.61 1.74 1.89 2.00 2.10 2.21 2.34 2.43 2.47 2.51 2.54 2.60 2.77 2.78 2.78 2.73 2.60
1.13 1.11 1.45 1.74 1.66 1.63 1.44 1.15 1.06 1.09 1.06 0.97 0.99 0.97 0.96 1.01 0.96 0.88 0.84 0.85 0.92 1.04 1.14 1.23 1.40 1.58 1.63 1.75 1.85 1.97 2.18 2.37 2.45 2.47 2.47 2.45 2.46 2.57 2.65 2.65 2.64 2.69 2.72 2.71
1.33 1.33 1.64 1.96 1.73 1.71 1.62 1.33 1.15 1.03 0.96 0.95 1.09 1.11 1.02 1.03 1.06 1.01 1.01 1.02 1.06 1.15 1.28 1.41 1.55 1.71 1.80 1.94 2.06 2.16 2.33 2.54 2.71 2.65 2.58 2.58 2.62 2.65 2.63 2.60 2.56 2.59 2.51 2.46